Eriksson Peter

Typ Segrar %
Senaste halvår 8 4 %
Bollnäs 4 10 %
Inom V75 0 0 %

Starter

Datum Bana Lopp Distans Häst Spår Odds Placering
2017-06-13 H 2 M LILL GUSTAF 6 609 7
2017-06-13 H 9 M MONAHAN PALEMA 7 440 7
2017-06-10 ÖS 3 M GLORIA DI QUATTRO 6 124 7
2017-06-10 ÖS 4 L UPBEAT MUSIC 2 1484 d
2017-06-10 ÖS 5 L KENEDISA ROLLAX 3 955 5
2017-06-10 ÖS 8 M ALFIE 1 180 5
2017-06-10 ÖS 11 M TEMPURA 9 484 d
2017-06-10 ÖS 12 K VALENTINO DEMI 4 1000 8
2017-06-03 BS 1 M MULSTA TÖSEN 11 101 9
2017-06-03 BS 3 M HEAL THE WORLD 2 98 3
2017-06-03 BS 5 M GLORIA DI QUATTRO 12 419 2
2017-06-03 BS 6 M UPBEAT MUSIC 5 522 5
2017-06-03 BS 10 M DONNA DEA 12 289 9
2017-06-01 B 2 M LES VACANCES 7 108 5
2017-06-01 B 3 K TRÖNÖ JÄNTA 1 42 3
2017-06-01 B 5 M KENEDISA ROLLAX 3 98 4
2017-06-01 B 6 M TEQUILA GEL 7 619 6
2017-05-29 ÖS 1 M K.A.LASPINGLA 2 287 8
2017-05-29 ÖS 2 K BARON HORNLINE 3 179 6
2017-05-29 ÖS 4 M SPECIAL OFFER 11 223 8
2017-05-29 ÖS 6 K K.A.PITAL 4 205 9
2017-05-29 ÖS 8 M K.A.LYKKA 4 517 6
2017-05-22 D 3 M NÄRBYFLICKAN 5 210 5
2017-05-22 D 4 K QUEEN OF HILLS 7 166 6
2017-05-22 D 5 K JERKTERNA VIND 11 1173 8
2017-05-18 B 2 M UPBEAT MUSIC 5 117 3
2017-05-18 B 6 M DREW GOULD 2 926 9
2017-05-18 B 8 K LILL GUSTAF 4 228 4
2017-05-13 ÖS 2 K LOMANI TABAC 6 284 9
2017-05-13 ÖS 7 M KENEDISA ROLLAX 11 61 3
2017-05-13 ÖS 10 M LES VACANCES 7 52 d
2017-05-11 H 3 M NÄRBY KALABALIK 9 696 9
2017-05-11 H 5 M K.A.LASPINGLA 3 41 8
2017-05-10 B 5 M TEMPURA 6 58 2
2017-05-06 G 1 K LILL MADDE 11 90 4
2017-05-06 G 5 M SIKKEN ÅLJ 7 504 7
2017-05-05 2 M YOU ROCK MY WORLD 3 1234 d
2017-05-05 5 M ZILLE CROFTER 7 704 9
2017-05-05 10 M MONAHAN PALEMA 6 292 7
2017-05-04 ÖS 1 M K.A.BEAKER 3 421 d